• In Germany
  • List of Countries
  • For 7 days
  • Water Temperature
  • Satellite Maps
  • Weather Map
  • Weather Widgets
  • user-avatar
    Login

    Hourly Weather Qala i Naw

    Today, 26 September, Tuesday

    Time Temperature Precipitation Wind Pressure Humidity
    00:00 +20°C° 0 mm 2 mps 682 mmHg 22%
    01:00 +21°C° 0 mm 1 mps 682 mmHg 22%
    02:00 +20°C° 0 mm 1 mps 682 mmHg 23%
    03:00 +20°C° 0 mm 1 mps 682 mmHg 23%
    04:00 +19°C° 0 mm 1 mps 682 mmHg 24%
    05:00 +20°C° 0 mm 1 mps 682 mmHg 23%
    06:00 +21°C° 0 mm 1 mps 682 mmHg 22%
    07:00 +22°C° 0 mm 1 mps 683 mmHg 21%
    08:00 +23°C° 0 mm 1 mps 683 mmHg 19%
    09:00 +25°C° 0 mm 1 mps 683 mmHg 17%
    10:00 +27°C° 0 mm 2 mps 683 mmHg 15%
    11:00 +28°C° 0 mm 2 mps 683 mmHg 15%
    12:00 +29°C° 0 mm 3 mps 683 mmHg 14%
    13:00 +29°C° 0 mm 4 mps 683 mmHg 14%
    14:00 +29°C° 0 mm 4 mps 683 mmHg 14%
    15:00 +29°C° 0 mm 4 mps 683 mmHg 15%
    16:00 +29°C° 0 mm 4 mps 682 mmHg 15%
    17:00 +28°C° 0 mm 3 mps 683 mmHg 17%
    18:00 +26°C° 0 mm 3 mps 683 mmHg 18%
    19:00 +25°C° 0 mm 2 mps 683 mmHg 20%
    20:00 +24°C° 0 mm 2 mps 683 mmHg 21%
    21:00 +23°C° 0 mm 2 mps 683 mmHg 22%
    22:00 +23°C° 0 mm 2 mps 683 mmHg 23%
    23:00 +21°C° 0 mm 2 mps 683 mmHg 24%

    Tomorrow, 27 September, Wednesday

    Time Temperature Precipitation Wind Pressure Humidity
    00:00 +20°C° 0 mm 2 mps 683 mmHg 25%
    01:00 +21°C° 0 mm 1 mps 683 mmHg 26%
    02:00 +20°C° 0 mm 1 mps 683 mmHg 28%
    03:00 +19°C° 0 mm 1 mps 683 mmHg 29%
    04:00 +19°C° 0 mm 1 mps 683 mmHg 31%
    05:00 +18°C° 0 mm 2 mps 684 mmHg 30%
    06:00 +19°C° 0 mm 2 mps 684 mmHg 30%
    07:00 +19°C° 0 mm 2 mps 684 mmHg 30%
    08:00 +21°C° 0 mm 2 mps 685 mmHg 27%
    09:00 +24°C° 0 mm 2 mps 685 mmHg 24%
    10:00 +25°C° 0 mm 3 mps 685 mmHg 22%
    11:00 +26°C° 0 mm 3 mps 685 mmHg 21%
    12:00 +27°C° 0 mm 3 mps 684 mmHg 19%
    13:00 +28°C° 0 mm 3 mps 684 mmHg 18%
    14:00 +28°C° 0 mm 4 mps 684 mmHg 18%
    15:00 +28°C° 0 mm 4 mps 684 mmHg 18%
    16:00 +28°C° 0 mm 4 mps 684 mmHg 18%
    17:00 +27°C° 0 mm 3 mps 683 mmHg 21%
    18:00 +26°C° 0 mm 3 mps 683 mmHg 24%
    19:00 +24°C° 0 mm 2 mps 683 mmHg 26%
    20:00 +23°C° 0 mm 2 mps 683 mmHg 27%
    21:00 +23°C° 0 mm 2 mps 683 mmHg 29%
    22:00 +22°C° 0 mm 1 mps 683 mmHg 30%
    23:00 +22°C° 0 mm 1 mps 683 mmHg 30%

    Day after tomorrow, 28 September, Thursday

    Time Temperature Precipitation Wind Pressure Humidity
    00:00 +21°C° 0 mm 1 mps 682 mmHg 30%
    01:00 +21°C° 0 mm 1 mps 682 mmHg 30%
    02:00 +20°C° 0 mm 1 mps 682 mmHg 30%
    03:00 +20°C° 0 mm 1 mps 681 mmHg 30%
    04:00 +19°C° 0 mm 1 mps 681 mmHg 30%
    05:00 +20°C° 0 mm 1 mps 681 mmHg 28%
    06:00 +21°C° 0 mm 1 mps 682 mmHg 26%
    07:00 +22°C° 0 mm 1 mps 682 mmHg 24%
    08:00 +24°C° 0 mm 1 mps 682 mmHg 21%
    09:00 +26°C° 0 mm 1 mps 682 mmHg 19%
    10:00 +28°C° 0 mm 1 mps 683 mmHg 16%
    11:00 +29°C° 0 mm 2 mps 683 mmHg 15%
    12:00 +30°C° 0 mm 2 mps 682 mmHg 14%
    13:00 +31°C° 0 mm 3 mps 682 mmHg 13%
    14:00 +31°C° 0 mm 3 mps 682 mmHg 13%
    15:00 +31°C° 0 mm 3 mps 682 mmHg 13%
    16:00 +30°C° 0 mm 4 mps 682 mmHg 13%
    17:00 +29°C° 0 mm 3 mps 682 mmHg 15%
    18:00 +27°C° 0 mm 2 mps 682 mmHg 17%
    19:00 +26°C° 0 mm 2 mps 682 mmHg 19%
    20:00 +25°C° 0 mm 2 mps 682 mmHg 20%
    21:00 +24°C° 0 mm 2 mps 682 mmHg 21%
    22:00 +24°C° 0 mm 3 mps 683 mmHg 22%
    23:00 +22°C° 0 mm 3 mps 683 mmHg 24%

    29 September, Friday

    Time Temperature Precipitation Wind Pressure Humidity
    00:00 +21°C° 0 mm 3 mps 682 mmHg 26%
    01:00 +20°C° 0 mm 2 mps 682 mmHg 28%
    02:00 +19°C° 0 mm 2 mps 682 mmHg 30%
    03:00 +18°C° 0 mm 2 mps 682 mmHg 31%
    04:00 +17°C° 0 mm 2 mps 682 mmHg 33%
    05:00 +17°C° 0 mm 2 mps 683 mmHg 34%
    06:00 +17°C° 0 mm 2 mps 683 mmHg 34%
    07:00 +17°C° 0 mm 2 mps 684 mmHg 34%
    08:00 +19°C° 0 mm 2 mps 684 mmHg 32%
    09:00 +20°C° 0 mm 3 mps 684 mmHg 30%
    10:00 +21°C° 0 mm 3 mps 685 mmHg 27%
    11:00 +22°C° 0 mm 4 mps 685 mmHg 26%
    12:00 +23°C° 0 mm 4 mps 684 mmHg 25%
    13:00 +25°C° 0 mm 4 mps 684 mmHg 24%
    14:00 +25°C° 0 mm 5 mps 684 mmHg 25%
    15:00 +25°C° 0 mm 5 mps 684 mmHg 26%
    16:00 +24°C° 0 mm 6 mps 684 mmHg 28%
    17:00 +22°C° 0 mm 5 mps 685 mmHg 31%
    18:00 +21°C° 0 mm 5 mps 685 mmHg 34%
    19:00 +20°C° 0 mm 5 mps 685 mmHg 38%
    20:00 +19°C° 0 mm 4 mps 685 mmHg 40%
    21:00 +18°C° 0 mm 4 mps 686 mmHg 43%
    22:00 +17°C° 0 mm 3 mps 686 mmHg 46%
    23:00 +17°C° 0 mm 3 mps 686 mmHg 47%

    30 September, Saturday

    Time Temperature Precipitation Wind Pressure Humidity
    00:00 +16°C° 0 mm 2 mps 685 mmHg 48%
    01:00 +16°C° 0 mm 2 mps 685 mmHg 50%
    02:00 +15°C° 0 mm 2 mps 685 mmHg 50%
    03:00 +15°C° 0 mm 2 mps 685 mmHg 50%
    04:00 +14°C° 0 mm 2 mps 685 mmHg 51%
    05:00 +15°C° 0 mm 2 mps 685 mmHg 49%
    06:00 +15°C° 0 mm 2 mps 685 mmHg 47%
    07:00 +15°C° 0 mm 2 mps 685 mmHg 45%
    08:00 +17°C° 0 mm 2 mps 685 mmHg 40%
    09:00 +19°C° 0 mm 2 mps 686 mmHg 36%
    10:00 +20°C° 0 mm 3 mps 686 mmHg 31%
    11:00 +22°C° 0 mm 3 mps 685 mmHg 28%
    12:00 +24°C° 0 mm 3 mps 685 mmHg 26%
    13:00 +25°C° 0 mm 4 mps 685 mmHg 23%
    14:00 +25°C° 0 mm 4 mps 685 mmHg 23%
    15:00 +25°C° 0 mm 4 mps 684 mmHg 23%
    16:00 +25°C° 0 mm 4 mps 684 mmHg 22%
    17:00 +24°C° 0 mm 3 mps 684 mmHg 24%
    18:00 +21°C° 0 mm 3 mps 684 mmHg 27%
    19:00 +20°C° 0 mm 2 mps 684 mmHg 29%
    20:00 +19°C° 0 mm 2 mps 684 mmHg 30%
    21:00 +20°C° 0 mm 1 mps 684 mmHg 31%
    22:00 +19°C° 0 mm 1 mps 684 mmHg 32%
    23:00 +18°C° 0 mm 1 mps 684 mmHg 33%

    1 October, Sunday

    Time Temperature Precipitation Wind Pressure Humidity
    00:00 +16°C° 0 mm 0 mps 683 mmHg 34%
    01:00 +15°C° 0 mm 0 mps 683 mmHg 35%
    02:00 +15°C° 0 mm 0 mps 683 mmHg 36%
    03:00 +15°C° 0 mm 0 mps 683 mmHg 36%
    04:00 +14°C° 0 mm 0 mps 683 mmHg 37%
    05:00 +15°C° 0 mm 0 mps 683 mmHg 34%
    06:00 +19°C° 0 mm 1 mps 684 mmHg 32%
    07:00 +20°C° 0 mm 1 mps 684 mmHg 29%
    08:00 +22°C° 0 mm 1 mps 684 mmHg 25%
    09:00 +22°C° 0 mm 0 mps 684 mmHg 20%
    10:00 +25°C° 0 mm 0 mps 685 mmHg 16%
    11:00 +28°C° 0 mm 1 mps 684 mmHg 14%
    12:00 +30°C° 0 mm 1 mps 684 mmHg 12%
    13:00 +31°C° 0 mm 2 mps 684 mmHg 10%
    14:00 +31°C° 0 mm 2 mps 683 mmHg 11%
    15:00 +31°C° 0 mm 2 mps 683 mmHg 11%
    16:00 +31°C° 0 mm 2 mps 683 mmHg 11%
    17:00 +29°C° 0 mm 2 mps 683 mmHg 12%
    18:00 +27°C° 0 mm 1 mps 683 mmHg 14%
    19:00 +26°C° 0 mm 1 mps 682 mmHg 15%
    20:00 +25°C° 0 mm 1 mps 682 mmHg 16%
    21:00 +25°C° 0 mm 1 mps 682 mmHg 16%
    22:00 +25°C° 0 mm 2 mps 682 mmHg 16%
    23:00 +24°C° 0 mm 2 mps 682 mmHg 17%
    Show more